Location: Boitzum
(52.1496°N, 9.6943°E)
Time: 00:33:48
(UTC+00:00)

Meteor 2-13 Rocket - Pass Details

Date: 13 January 2026
Orbit: 935 x 958 km, 82.5° (Epoch: 9 February)

Event Time Altitude Azimuth Distance (km) Brightness Sun altitude
Rises 05:07:38 0° 347° (NNW) 3,644 7.3 -20.1°
Reaches altitude 10° 05:10:09 10° 345° (NNW) 2,691 6.6 -19.8°
Maximum altitude 05:16:14 66° 265° (W) 1,032 4.4 -18.8°
Drops below altitude 10° 05:22:15 10° 184° (S) 2,657 6.9 -17.9°
Sets 05:24:44 0° 182° (S) 3,594 7.6 -17.6°
